Kalamata, Greece

3:19 AM EEST on May 30, 2017 (GMT +0300)
Kalamata Air Base

Weather History for LGKL - November, 2012

Change the Weather History Date:

Wednesday, November 21, 2012

  Actual Average Record
Temperature  
Mean Temperature 59 °F -  
Max Temperature 68 °F 64 °F 73 °F (2015)
Min Temperature 50 °F 46 °F 32 °F (2005)
Degree Days  
Heating Degree Days 6    
Growing Degree Days 9 (Base 50)    
Moisture  
Dew Point 55 °F    
Average Humidity 85    
Maximum Humidity 100    
Minimum Humidity 64    
Precipitation  
Precipitation 0.00 in 0.20 in - ()
Sea Level Pressure  
Sea Level Pressure 29.98 in    
Wind  
Wind Speed 0 mph ()    
Max Wind Speed 6 mph    
Max Gust Speed -    
Visibility 5.9 miles    
Events Rain    
Averages and records for this station are not official NWS values.
T = Trace of Precipitation, MM = Missing Value Source: Averaged Metar Reports

Daily Weather History Graph

Daily Weather History Graph

Search for Another Location

Airport or City:

Trip Planner

Search our weather history database for the weather conditions in past years. The results will help you decide how hot, cold, wet, or windy it might be!

Date:

Astronomy

Nov. 21, 2012 Rise Set
Actual Time 7:17 AM EET 5:18 PM EET
Civil Twilight 6:48 AM EET 5:46 PM EET
Nautical Twilight 6:17 AM EET 6:18 PM EET
Astronomical Twilight 5:46 AM EET 6:49 PM EET
Moon 1:17 PM EET (11/21) 12:25 AM EET (11/21)
Length of Visible Light 10h 57m
Length of Day
10h 01m
First Quarter, 58% of the Moon is Illuminated
Nov 21
First Quarter
Nov 28
Full
Dec 6
Last Quarter
Dec 13
New
Dec 20
First Quarter

Hourly Weather History & Observations

Time (EET) Temp. Dew Point Humidity Pressure Visibility Wind Dir Wind Speed Gust Speed Precip Events Conditions
1:50 AM 53.6 °F 51.8 °F 94% 29.98 in 6.2 mi WNW 2.3 mph - N/A   Mostly Cloudy
5:50 AM 50.0 °F 48.2 °F 94% 29.98 in 6.2 mi Calm Calm - N/A   Mostly Cloudy
6:20 AM 50.0 °F 48.2 °F 94% 29.98 in 6.2 mi Calm Calm - N/A   Scattered Clouds
6:50 AM 50.0 °F 50.0 °F 100% 29.98 in 6.2 mi Calm Calm - N/A   Scattered Clouds
7:20 AM 50.0 °F 48.2 °F 94% 29.98 in 6.2 mi Calm Calm - N/A   Scattered Clouds
7:50 AM 50.0 °F 50.0 °F 100% 29.98 in 6.2 mi Calm Calm - N/A   Scattered Clouds
8:20 AM 53.6 °F 51.8 °F 94% 30.01 in 5.0 mi Calm Calm - N/A   Scattered Clouds
8:50 AM 55.4 °F 53.6 °F 94% 30.01 in 5.0 mi Calm Calm - N/A   Scattered Clouds
9:20 AM 59.0 °F 55.4 °F 88% 30.01 in 5.0 mi Calm Calm - N/A   Scattered Clouds
9:50 AM 60.8 °F 57.2 °F 88% 30.01 in 4.3 mi Calm Calm - N/A   Scattered Clouds
10:20 AM 62.6 °F 57.2 °F 82% 29.98 in 5.0 mi Calm Calm - N/A   Scattered Clouds
10:50 AM 64.4 °F 57.2 °F 77% 29.98 in 6.2 mi Calm Calm - N/A   Scattered Clouds
11:20 AM 64.4 °F 57.2 °F 77% 30.01 in 6.2 mi Calm Calm - N/A   Scattered Clouds
11:50 AM 64.4 °F 55.4 °F 73% 29.98 in 6.2 mi Calm Calm - N/A   Scattered Clouds
12:20 PM 66.2 °F 55.4 °F 68% 29.98 in 6.2 mi Calm Calm - N/A   Scattered Clouds
12:50 PM 66.2 °F 55.4 °F 68% 29.98 in 6.2 mi NNW 4.6 mph - N/A   Mostly Cloudy
1:20 PM 66.2 °F 55.4 °F 68% 29.95 in 6.2 mi Calm Calm - N/A   Scattered Clouds
1:50 PM 68.0 °F 55.4 °F 64% 29.95 in 6.2 mi Calm Calm - N/A   Scattered Clouds
2:20 PM 68.0 °F 55.4 °F 64% 29.95 in 6.2 mi Calm Calm - N/A   Scattered Clouds
2:50 PM 66.2 °F 55.4 °F 68% 29.95 in 6.2 mi Calm Calm - N/A   Scattered Clouds
3:20 PM 66.2 °F 57.2 °F 73% 29.95 in 6.2 mi Calm Calm - N/A   Mostly Cloudy
3:50 PM 64.4 °F 57.2 °F 77% 29.98 in 6.2 mi Calm Calm - N/A   Mostly Cloudy
4:20 PM 60.8 °F 57.2 °F 88% 29.98 in 6.2 mi Calm Calm - N/A Rain Light Rain
4:50 PM 60.8 °F 57.2 °F 88% 29.98 in 6.2 mi Calm Calm - N/A Rain Light Rain
5:20 PM 59.0 °F 57.2 °F 94% 29.98 in 4.3 mi Calm Calm - N/A Rain Rain
5:50 PM 59.0 °F 57.2 °F 94% 29.98 in 6.2 mi Calm Calm - N/A   Scattered Clouds
6:20 PM 57.2 °F 55.4 °F 94% 29.98 in 6.2 mi Calm Calm - N/A   Scattered Clouds
6:50 PM 57.2 °F 55.4 °F 94% 29.98 in 6.2 mi Calm Calm - N/A   Scattered Clouds
7:20 PM 57.2 °F 55.4 °F 94% 29.98 in 6.2 mi NW 5.8 mph - N/A   Scattered Clouds
7:50 PM 57.2 °F 55.4 °F 94% 30.01 in 6.2 mi Calm Calm - N/A   Scattered Clouds
10:50 PM 53.6 °F 51.8 °F 94% 30.01 in 6.2 mi Calm Calm - N/A   Scattered Clouds